"startDT [UTC]","vpos","CH4 [ppm]","stdev(CH4) [ppm]","CO2 [ppm]","stdev(CO2) [ppm]","H2O_reported [%]","stdev(H2O_reported)","CavityPressure [torr]","CavityTemp [C]","OutletValve","CH4_dry [ppm]","CO2_dry [ppm]","DasTemp [C]","EtalonTemp [C]","WarmBoxTemp [C]","MPVPosition","T_ECpre [C]","T_EC1 [C]","T_EC2 [C]","p_inlet [hPa]","p_in [hPa]","p_out [hPa]","T_inlet [C]","RH_inlet [%]","dwpt_inlet [C]","T_vent [C]","RH_vent [%]","dwpt_vent [C]","flow_vent [l min-1]","flow_inlet [l min-1]","dwpt_sample [C]","T_room [C]"
2015-03-15 00:00:00,0.0,1.94943,0.00037,406.191,0.024,0.2730,0.0016,139.999,45.000,34087.85710,1.95473,407.535,32.685,45.068,45.000,0.00,0.09,-272.70,-272.77,-2,970,-2,21.4,7.9,-14.4,21.0,8.2,-14.3,5.73,1.97,-11.4,25.6
2015-03-15 00:01:00,0.0,1.94953,0.00040,406.202,0.031,0.2743,0.0014,140.001,45.000,34087.98772,1.95482,407.551,32.683,45.068,45.000,0.00,0.09,-272.71,-272.77,-2,971,-2,21.4,7.9,-14.4,21.0,8.2,-14.2,5.73,1.94,-11.4,25.6
2015-03-15 00:02:00,0.0,1.94965,0.00041,406.196,0.025,0.2775,0.0020,140.000,45.000,34087.76554,1.95498,407.563,32.687,45.068,45.000,0.00,0.09,-272.71,-272.77,-2,970,-2,21.4,8.0,-14.3,21.0,8.3,-14.1,5.73,1.89,-11.4,25.6
2015-03-15 00:03:00,0.0,1.94954,0.00028,406.188,0.022,0.2782,0.0018,140.005,45.000,34089.48298,1.95494,407.555,32.688,45.068,45.000,0.00,0.09,-272.71,-272.77,-2,970,-2,21.4,8.0,-14.2,21.0,8.3,-14.1,5.73,1.87,-11.4,25.6
2015-03-15 00:04:00,0.0,1.94954,0.00040,406.145,0.033,0.2796,0.0020,140.001,45.000,34087.21023,1.95493,407.522,32.687,45.068,45.000,0.00,0.09,-272.71,-272.76,-1,970,-2,21.4,8.0,-14.2,21.0,8.3,-14.0,5.73,1.90,-11.4,25.6
2015-03-15 00:05:00,0.0,1.94902,0.00034,406.158,0.031,0.2810,0.0008,139.999,45.000,34088.91016,1.95448,407.541,32.683,45.068,45.000,0.00,0.09,-272.72,-272.78,-1,969,-2,21.4,8.1,-14.1,21.0,8.4,-14.0,5.73,1.95,-11.4,25.6
2015-03-15 00:06:00,0.0,1.94870,0.00028,406.120,0.030,0.2831,0.0016,139.997,45.000,34089.45578,1.95416,407.512,32.658,45.068,45.000,0.00,0.09,-272.71,-272.77,-1,969,-2,21.4,8.1,-14.0,21.0,8.4,-13.9,5.73,1.98,-11.4,25.6
2015-03-15 00:07:00,0.0,1.94894,0.00039,406.127,0.032,0.2852,0.0015,139.996,45.000,34086.54061,1.95447,407.530,32.631,45.068,45.000,0.00,0.09,-272.71,-272.76,-1,969,-2,21.4,8.2,-13.9,21.0,8.5,-13.8,5.73,1.96,-11.4,25.6
2015-03-15 00:08:00,0.0,1.94858,0.00047,406.111,0.029,0.2861,0.0016,139.999,45.000,34086.34569,1.95413,407.519,32.628,45.068,45.000,0.00,0.09,-272.71,-272.77,-1,969,-2,21.4,8.2,-13.8,21.0,8.5,-13.7,5.73,1.90,-11.4,25.6
2015-03-15 00:09:00,0.0,1.94857,0.00019,406.084,0.025,0.2885,0.0021,140.001,45.000,34087.87045,1.95412,407.502,32.627,45.068,45.000,0.00,0.09,-272.71,-272.77,-2,969,-2,21.4,8.3,-13.8,21.0,8.6,-13.7,5.73,1.88,-11.4,25.6
2015-03-15 00:10:00,0.0,1.94865,0.00039,406.093,0.028,0.2906,0.0014,139.999,45.000,34087.93705,1.95427,407.522,32.634,45.068,45.000,0.00,0.09,-272.71,-272.77,-2,970,-2,21.4,8.3,-13.7,21.0,8.6,-13.6,5.73,1.90,-11.4,25.6
2015-03-15 00:11:00,0.0,1.94851,0.00032,406.074,0.030,0.2929,0.0023,140.000,45.000,34089.53690,1.95420,407.518,32.647,45.068,45.000,0.00,0.09,-272.71,-272.77,-2,970,-2,21.4,8.4,-13.6,21.0,8.7,-13.5,5.73,1.95,-11.4,25.5
2015-03-15 00:12:00,0.0,1.94828,0.00042,406.058,0.032,0.2950,0.0012,139.999,45.000,34087.56906,1.95395,407.509,32.656,45.068,45.000,0.00,0.09,-272.71,-272.77,-2,970,-2,21.4,8.5,-13.5,21.0,8.7,-13.4,5.73,1.98,-11.4,25.6
2015-03-15 00:13:00,0.0,1.94838,0.00040,406.066,0.029,0.2967,0.0021,140.004,45.000,34089.21064,1.95411,407.527,32.653,45.068,45.000,0.00,0.09,-272.71,-272.76,-2,971,-2,21.4,8.5,-13.5,21.0,8.8,-13.4,5.73,1.97,-11.4,25.6
2015-03-15 00:14:00,0.0,1.94826,0.00037,406.049,0.035,0.2981,0.0013,139.997,45.000,34086.48258,1.95405,407.517,32.646,45.068,45.000,0.00,0.09,-272.71,-272.77,-2,971,-2,21.4,8.5,-13.4,21.0,8.8,-13.3,5.73,1.91,-11.4,25.6
2015-03-15 00:15:00,0.0,1.94808,0.00033,406.018,0.021,0.2992,0.0013,140.001,45.000,34087.59239,1.95384,407.491,32.643,45.068,45.000,0.00,0.09,-272.71,-272.78,-2,971,-2,21.4,8.6,-13.4,21.0,8.9,-13.2,5.73,1.87,-11.4,25.6
2015-03-15 00:16:00,0.0,1.94803,0.00032,406.011,0.028,0.3006,0.0015,140.000,45.000,34085.47252,1.95384,407.491,32.636,45.068,45.000,0.00,0.09,-272.71,-272.77,-1,970,-2,21.4,8.6,-13.3,21.0,8.9,-13.2,5.73,1.88,-11.4,25.6
2015-03-15 00:17:00,0.0,1.94798,0.00033,406.012,0.033,0.3018,0.0023,139.997,45.000,34085.86737,1.95383,407.498,32.627,45.068,45.000,0.00,0.09,-272.71,-272.76,-1,970,-2,21.4,8.7,-13.2,21.1,9.0,-13.1,5.73,1.93,-11.4,25.6
2015-03-15 00:18:00,0.0,1.94766,0.00040,405.984,0.035,0.3040,0.0012,140.005,45.000,34090.43800,1.95353,407.479,32.629,45.068,45.000,0.00,0.09,-272.71,-272.76,-1,969,-2,21.5,8.7,-13.2,21.0,9.0,-13.1,5.73,1.97,-11.4,25.6
2015-03-15 00:19:00,0.0,1.94743,0.00077,405.959,0.043,0.3043,0.0017,139.999,45.000,34089.81357,1.95337,407.460,32.668,45.068,45.000,0.00,0.09,-272.72,-272.77,-2,969,-2,21.5,8.7,-13.1,21.0,9.0,-13.0,5.73,1.97,-11.4,25.6
2015-03-15 00:20:00,0.0,1.94600,0.00060,405.877,0.037,0.3038,0.0014,139.998,45.000,34090.17983,1.95189,407.373,32.676,45.068,45.000,0.00,0.09,-272.71,-272.76,-2,969,-2,21.4,8.7,-13.2,21.0,9.0,-13.0,5.73,1.93,-11.4,25.6
2015-03-15 00:21:00,0.0,1.94626,0.00048,405.907,0.035,0.3052,0.0012,139.997,45.000,34090.90080,1.95215,407.408,32.671,45.068,45.000,0.00,0.09,-272.71,-272.77,-2,970,-2,21.4,8.7,-13.2,21.0,9.0,-13.0,5.73,1.89,-11.4,25.6
2015-03-15 00:22:00,0.0,1.94604,0.00029,405.904,0.034,0.3046,0.0022,139.997,45.000,34090.67058,1.95195,407.406,32.652,45.068,45.000,0.00,0.09,-272.71,-272.77,-2,970,-2,21.4,8.7,-13.2,21.0,9.0,-13.0,5.73,1.88,-11.4,25.6
2015-03-15 00:23:00,0.0,1.94569,0.00034,405.869,0.029,0.3031,0.0016,139.999,45.000,34090.44013,1.95152,407.361,32.657,45.068,45.000,0.00,0.09,-272.71,-272.76,-2,971,-2,21.4,8.7,-13.2,21.0,9.0,-13.1,5.73,1.91,-11.4,25.6
2015-03-15 00:24:00,0.0,1.94588,0.00050,405.896,0.043,0.3039,0.0015,140.001,45.000,34088.40484,1.95174,407.391,32.676,45.068,45.000,0.00,0.09,-272.70,-272.76,-2,971,-2,21.4,8.7,-13.2,21.0,9.0,-13.0,5.73,1.95,-11.4,25.6
2015-03-15 00:25:00,0.0,1.94572,0.00031,405.873,0.042,0.3037,0.0012,139.999,45.000,34088.83163,1.95158,407.367,32.688,45.068,45.000,0.00,0.09,-272.71,-272.77,-2,971,-2,21.4,8.7,-13.2,21.0,9.0,-13.0,5.73,1.98,-11.4,25.6
2015-03-15 00:26:00,0.0,1.94544,0.00042,405.853,0.035,0.3022,0.0013,140.001,45.000,34090.73710,1.95129,407.342,32.680,45.068,45.000,0.00,0.09,-272.71,-272.77,-2,971,-2,21.4,8.7,-13.2,21.0,9.0,-13.1,5.73,1.94,-11.4,25.6
2015-03-15 00:27:00,0.0,1.94555,0.00030,405.862,0.042,0.3035,0.0020,140.003,45.000,34089.47391,1.95140,407.354,32.682,45.068,45.000,0.00,0.09,-272.70,-272.77,-1,970,-2,21.4,8.7,-13.2,21.0,9.0,-13.0,5.73,1.88,-11.4,25.6
2015-03-15 00:28:00,0.0,1.94596,0.00033,405.876,0.025,0.3035,0.0017,140.000,45.000,34087.70385,1.95180,407.370,32.685,45.068,45.000,0.00,0.09,-272.71,-272.77,-1,970,-2,21.4,8.7,-13.2,21.0,9.0,-13.1,5.73,1.87,-11.4,25.6
2015-03-15 00:29:00,0.0,1.94579,0.00035,405.893,0.023,0.3030,0.0017,139.998,45.000,34087.41675,1.95168,407.385,32.688,45.068,45.000,0.00,0.09,-272.71,-272.77,-1,970,-2,21.4,8.7,-13.2,21.1,9.0,-13.0,5.73,1.89,-11.4,25.6
2015-03-15 00:30:00,0.0,1.94599,0.00025,405.896,0.028,0.3037,0.0017,140.003,45.000,34088.66882,1.95184,407.391,32.691,45.068,45.000,0.00,0.09,-272.71,-272.76,-2,970,-2,21.4,8.7,-13.2,21.1,9.0,-13.0,5.73,1.95,-11.4,25.6
2015-03-15 00:31:00,0.0,1.94563,0.00036,405.876,0.030,0.3043,0.0018,139.997,45.000,34089.50496,1.95153,407.373,32.689,45.068,45.000,0.00,0.09,-272.71,-272.77,-2,969,-2,21.5,8.7,-13.1,21.1,9.0,-13.0,5.73,1.97,-11.4,25.6
2015-03-15 00:32:00,0.0,1.94533,0.00026,405.851,0.026,0.3059,0.0021,139.996,45.000,34088.53157,1.95124,407.358,32.713,45.068,45.000,0.00,0.09,-272.71,-272.77,-2,970,-2,21.5,8.8,-13.1,21.1,9.1,-12.9,5.73,1.96,-11.4,25.6
2015-03-15 00:33:00,0.0,1.94532,0.00033,405.833,0.030,0.3071,0.0013,139.998,45.000,34091.08500,1.95123,407.345,32.713,45.068,45.000,0.00,0.09,-272.71,-272.77,-2,970,-2,21.4,8.8,-13.1,21.1,9.1,-12.9,5.73,1.92,-11.4,25.6
2015-03-15 00:34:00,0.0,1.94555,0.00045,405.842,0.038,0.3068,0.0019,140.001,45.000,34090.72675,1.95148,407.352,32.702,45.068,45.000,0.00,0.09,-272.71,-272.76,-2,971,-2,21.4,8.8,-13.0,21.1,9.1,-12.9,5.73,1.88,-11.4,25.6
2015-03-15 00:35:00,0.0,1.94519,0.00040,405.836,0.037,0.3085,0.0017,140.002,45.000,34090.87397,1.95115,407.354,32.691,45.068,45.000,0.00,0.09,-272.72,-272.77,-2,971,-2,21.4,8.8,-13.0,21.1,9.1,-12.8,5.73,1.88,-11.4,25.6
2015-03-15 00:36:00,0.0,1.94478,0.00034,405.819,0.044,0.3113,0.0016,140.001,45.000,34091.59354,1.95082,407.350,32.689,45.068,45.000,0.00,0.09,-272.71,-272.77,-2,971,-2,21.4,8.9,-12.9,21.1,9.2,-12.8,5.73,1.91,-11.3,25.6
2015-03-15 00:37:00,0.0,1.94518,0.00039,405.827,0.031,0.3117,0.0016,140.002,45.000,34090.82721,1.95117,407.363,32.688,45.068,45.000,0.00,0.09,-272.71,-272.77,-1,971,-2,21.4,8.9,-12.9,21.0,9.2,-12.7,5.73,1.96,-11.4,25.7
2015-03-15 00:38:00,0.0,1.94543,0.00038,405.823,0.035,0.3132,0.0018,140.002,45.000,34090.03287,1.95147,407.366,32.709,45.068,45.000,0.00,0.09,-272.71,-272.77,-1,970,-2,21.4,9.0,-12.8,21.0,9.3,-12.7,5.73,1.97,-11.4,25.6
2015-03-15 00:39:00,0.0,1.94563,0.00039,405.820,0.040,0.3149,0.0017,140.000,45.000,34090.60482,1.95170,407.368,32.749,45.068,45.000,0.00,0.09,-272.72,-272.77,-1,970,-2,21.4,9.0,-12.8,21.1,9.3,-12.6,5.73,1.93,-11.4,25.6
2015-03-15 00:40:00,0.0,1.94511,0.00045,405.784,0.030,0.3159,0.0014,140.004,45.000,34092.32525,1.95124,407.341,32.754,45.068,45.000,0.00,0.09,-272.71,-272.77,-2,969,-2,21.5,9.0,-12.7,21.1,9.3,-12.6,5.73,1.88,-11.3,25.7
2015-03-15 00:41:00,0.0,1.94455,0.00042,405.778,0.030,0.3172,0.0017,140.000,45.000,34090.83463,1.95070,407.338,32.755,45.068,45.000,0.00,0.09,-272.71,-272.77,-2,969,-2,21.5,9.1,-12.7,21.1,9.4,-12.5,5.73,1.87,-11.3,25.6
2015-03-15 00:42:00,0.0,1.94461,0.00034,405.757,0.047,0.3180,0.0016,140.003,45.000,34091.32019,1.95075,407.323,32.765,45.068,45.000,0.00,0.09,-272.72,-272.77,-2,969,-2,21.4,9.1,-12.6,21.1,9.4,-12.5,5.73,1.91,-11.4,25.6
2015-03-15 00:43:00,0.0,1.94434,0.00034,405.731,0.040,0.3199,0.0015,139.997,45.000,34089.19436,1.95049,407.306,32.787,45.068,45.000,0.00,0.09,-272.72,-272.77,-2,969,-2,21.4,9.1,-12.6,21.1,9.4,-12.5,5.73,1.97,-11.3,25.6
2015-03-15 00:44:00,0.0,1.94449,0.00031,405.739,0.023,0.3210,0.0020,140.000,45.000,34090.34064,1.95066,407.320,32.802,45.068,45.000,0.00,0.09,-272.71,-272.76,-2,969,-2,21.4,9.2,-12.5,21.1,9.5,-12.4,5.73,1.97,-11.3,25.6
2015-03-15 00:45:00,0.0,1.94455,0.00038,405.719,0.033,0.3228,0.0022,140.003,45.000,34090.44346,1.95083,407.309,32.763,45.068,45.000,0.00,0.09,-272.71,-272.77,-2,970,-2,21.4,9.2,-12.5,21.1,9.5,-12.3,5.73,1.94,-11.3,25.6
2015-03-15 00:46:00,0.0,1.94481,0.00030,405.740,0.022,0.3235,0.0016,139.996,45.000,34087.78671,1.95103,407.332,32.750,45.068,45.000,0.00,0.09,-272.71,-272.77,-2,970,-2,21.5,9.2,-12.4,21.1,9.6,-12.3,5.73,1.89,-11.3,25.6
2015-03-15 00:47:00,0.0,1.94465,0.00030,405.741,0.039,0.3251,0.0019,140.000,45.000,34089.73095,1.95094,407.342,32.731,45.068,45.000,0.00,0.09,-272.70,-272.77,-2,971,-2,21.5,9.3,-12.4,21.1,9.6,-12.3,5.73,1.88,-11.3,25.6
2015-03-15 00:48:00,0.0,1.94502,0.00033,405.739,0.028,0.3260,0.0020,140.000,45.000,34087.55540,1.95134,407.346,32.732,45.068,45.000,0.00,0.09,-272.71,-272.76,-2,971,-2,21.4,9.3,-12.3,21.1,9.6,-12.2,5.73,1.90,-11.3,25.6
2015-03-15 00:49:00,0.0,1.94473,0.00039,405.712,0.037,0.3268,0.0016,140.001,45.000,34090.13274,1.95100,407.320,32.722,45.068,45.000,0.00,0.09,-272.72,-272.77,-2,971,-2,21.5,9.3,-12.3,21.1,9.6,-12.2,5.73,1.95,-11.3,25.7
2015-03-15 00:50:00,0.0,1.94483,0.00039,405.728,0.031,0.3271,0.0013,139.999,45.000,34089.90135,1.95116,407.339,32.703,45.068,45.001,0.00,0.09,-272.71,-272.76,-2,971,-2,21.5,9.3,-12.3,21.1,9.7,-12.2,5.73,1.97,-11.3,25.6
2015-03-15 00:51:00,0.0,1.94392,0.00041,405.674,0.035,0.3275,0.0023,140.001,45.000,34091.78757,1.95026,407.287,32.708,45.068,45.000,0.00,0.09,-272.71,-272.76,-2,970,-2,21.5,9.4,-12.3,21.1,9.7,-12.1,5.73,1.95,-11.3,25.6
2015-03-15 00:52:00,0.0,1.94413,0.00042,405.687,0.043,0.3296,0.0016,139.997,45.000,34092.40223,1.95051,407.309,32.703,45.069,45.001,0.00,0.09,-272.71,-272.78,-2,970,-2,21.4,9.4,-12.2,21.1,9.7,-12.1,5.73,1.91,-11.3,25.6
2015-03-15 00:53:00,0.0,1.94433,0.00030,405.700,0.026,0.3297,0.0017,140.000,45.000,34093.03373,1.95069,407.324,32.710,45.068,45.000,0.00,0.09,-272.71,-272.77,-2,970,-2,21.5,9.4,-12.2,21.1,9.7,-12.1,5.73,1.88,-11.3,25.6
2015-03-15 00:54:00,0.0,1.94383,0.00037,405.680,0.027,0.3298,0.0018,139.997,45.000,34091.40619,1.95020,407.304,32.692,45.068,45.000,0.00,0.09,-272.70,-272.76,-2,970,-2,21.5,9.4,-12.2,21.1,9.7,-12.1,5.73,1.89,-11.3,25.6
2015-03-15 00:55:00,0.0,1.94376,0.00050,405.652,0.030,0.3293,0.0018,139.998,45.000,34091.00673,1.95011,407.272,32.706,45.068,45.000,0.00,0.09,-272.71,-272.77,-2,971,-2,21.5,9.4,-12.2,21.1,9.7,-12.0,5.73,1.92,-11.3,25.7
2015-03-15 00:56:00,0.0,1.94403,0.00036,405.668,0.031,0.3302,0.0020,139.996,45.000,34091.01872,1.95042,407.295,32.712,45.068,45.000,0.00,0.09,-272.72,-272.77,-2,971,-2,21.5,9.4,-12.2,21.1,9.7,-12.0,5.73,1.95,-11.3,25.7
2015-03-15 00:57:00,0.0,1.94422,0.00034,405.694,0.039,0.3297,0.0021,139.999,45.000,34090.01876,1.95060,407.318,32.717,45.068,45.000,0.00,0.09,-272.71,-272.77,-1,971,-2,21.5,9.4,-12.2,21.1,9.7,-12.0,5.73,1.96,-11.3,25.7
2015-03-15 00:58:00,0.0,1.94412,0.00042,405.655,0.045,0.3290,0.0014,140.003,45.000,34091.61413,1.95044,407.274,32.744,45.068,45.000,0.00,0.09,-272.71,-272.76,-1,970,-2,21.5,9.4,-12.2,21.1,9.7,-12.1,5.73,1.96,-11.3,25.7
2015-03-15 00:59:00,0.0,1.94386,0.00039,405.644,0.034,0.3282,0.0017,140.003,45.000,34092.53171,1.95022,407.260,32.738,45.068,45.000,0.00,0.09,-272.71,-272.77,-2,970,-2,21.5,9.4,-12.2,21.1,9.7,-12.1,5.73,1.91,-11.3,25.7
2015-03-15 01:00:00,0.0,1.94384,0.00043,405.666,0.023,0.3293,0.0013,140.001,45.000,34091.24949,1.95018,407.287,32.692,45.068,45.000,0.00,0.09,-272.71,-272.77,-2,970,-2,21.5,9.4,-12.2,21.1,9.7,-12.1,5.73,1.88,-11.3,25.7
2015-03-15 01:01:00,0.0,1.94385,0.00058,405.669,0.029,0.3294,0.0012,140.001,45.000,34091.73301,1.95028,407.291,32.688,45.068,45.000,0.00,0.09,-272.71,-272.76,-2,970,-2,21.5,9.4,-12.2,21.1,9.7,-12.1,5.73,1.88,-11.3,25.7
2015-03-15 01:02:00,0.0,1.94375,0.00033,405.664,0.032,0.3300,0.0017,140.000,45.000,34092.05994,1.95006,407.288,32.683,45.068,45.000,0.00,0.09,-272.71,-272.77,-2,971,-2,21.5,9.4,-12.2,21.1,9.7,-12.1,5.73,1.91,-11.3,25.6
2015-03-15 01:03:00,0.0,1.94362,0.00049,405.632,0.029,0.3308,0.0021,139.999,45.000,34091.68270,1.95001,407.262,32.670,45.068,45.000,0.00,0.09,-272.71,-272.77,-2,971,-2,21.5,9.4,-12.2,21.1,9.7,-12.1,5.73,1.95,-11.3,25.6
2015-03-15 01:04:00,0.0,1.94362,0.00039,405.646,0.044,0.3305,0.0019,140.000,45.000,34091.56972,1.94998,407.274,32.672,45.068,45.000,0.00,0.09,-272.71,-272.76,-2,971,-2,21.5,9.4,-12.1,21.1,9.7,-12.0,5.73,1.97,-11.3,25.7
2015-03-15 01:05:00,0.0,1.94370,0.00030,405.648,0.036,0.3306,0.0012,139.998,45.000,34091.90340,1.95009,407.274,32.686,45.068,45.000,0.00,0.09,-272.71,-272.77,-2,970,-2,21.5,9.4,-12.2,21.1,9.7,-12.1,5.73,1.95,-11.3,25.7
2015-03-15 01:06:00,0.0,1.94315,0.00032,405.632,0.035,0.3300,0.0016,140.000,45.000,34094.05358,1.94957,407.258,32.687,45.068,45.000,0.00,0.09,-272.72,-272.77,-2,970,-2,21.5,9.4,-12.2,21.1,9.7,-12.1,5.73,1.91,-11.3,25.7
2015-03-15 01:07:00,0.0,1.94323,0.00039,405.643,0.036,0.3288,0.0024,139.998,45.000,34093.09356,1.94960,407.262,32.688,45.068,45.000,0.00,0.09,-272.71,-272.77,-2,970,-2,21.5,9.3,-12.2,21.1,9.7,-12.1,5.73,1.89,-11.3,25.7
2015-03-15 01:08:00,0.0,1.94308,0.00051,405.624,0.027,0.3274,0.0015,139.999,45.000,34095.40117,1.94941,407.235,32.690,45.068,45.000,0.00,0.09,-272.70,-272.77,-2,971,-2,21.5,9.3,-12.3,21.1,9.6,-12.2,5.73,1.89,-11.3,25.7
2015-03-15 01:09:00,0.0,1.94222,0.00029,405.603,0.030,0.3263,0.0022,140.000,45.000,34094.92233,1.94849,407.209,32.695,45.068,45.000,0.00,0.09,-272.71,-272.77,-2,971,-2,21.5,9.3,-12.3,21.1,9.6,-12.2,5.73,1.91,-11.3,25.7
2015-03-15 01:10:00,0.0,1.94292,0.00040,405.639,0.026,0.3260,0.0014,139.997,45.000,34093.63522,1.94921,407.244,32.718,45.068,45.000,0.00,0.09,-272.71,-272.77,-2,972,-2,21.5,9.3,-12.3,21.1,9.6,-12.2,5.73,1.95,-11.3,25.7
2015-03-15 01:11:00,0.0,1.94283,0.00047,405.636,0.033,0.3245,0.0013,140.002,45.000,34095.21199,1.94911,407.234,32.736,45.068,45.000,0.00,0.09,-272.71,-272.77,-2,971,-2,21.5,9.2,-12.4,21.1,9.5,-12.3,5.73,1.97,-11.3,25.7
2015-03-15 01:12:00,0.0,1.94294,0.00040,405.630,0.029,0.3236,0.0022,139.995,45.000,34093.60383,1.94918,407.222,32.740,45.068,45.000,0.00,0.09,-272.71,-272.76,-2,970,-2,21.5,9.2,-12.4,21.1,9.5,-12.3,5.73,1.95,-11.3,25.7
2015-03-15 01:13:00,0.0,1.94245,0.00039,405.608,0.037,0.3220,0.0019,139.998,45.000,34095.62448,1.94867,407.194,32.717,45.068,45.000,0.00,0.09,-272.72,-272.77,-2,970,-2,21.5,9.1,-12.5,21.1,9.5,-12.4,5.73,1.91,-11.3,25.7
2015-03-15 01:14:00,0.0,1.94150,0.00060,405.568,0.050,0.3218,0.0016,140.000,45.000,34097.42247,1.94774,407.152,32.703,45.068,45.000,0.00,0.09,-272.71,-272.76,-2,971,-2,21.5,9.1,-12.5,21.1,9.4,-12.4,5.73,1.89,-11.2,25.6
2015-03-15 01:15:00,0.0,1.94053,0.00046,405.497,0.036,0.3228,0.0022,140.002,45.000,34098.74714,1.94676,407.088,32.689,45.068,45.000,0.00,0.09,-272.71,-272.76,-2,972,-2,21.5,9.2,-12.4,21.1,9.5,-12.4,5.73,1.88,-11.2,25.6
2015-03-15 01:16:00,0.0,1.94013,0.00052,405.484,0.029,0.3268,0.0020,139.995,45.000,34098.30731,1.94646,407.092,32.688,45.068,45.000,0.00,0.09,-272.71,-272.77,-2,972,-2,21.6,9.3,-12.3,21.2,9.5,-12.2,5.73,1.90,-11.2,25.7
2015-03-15 01:17:00,0.0,1.94048,0.00057,405.491,0.037,0.3283,0.0013,139.997,45.000,34098.87840,1.94677,407.106,32.688,45.068,45.000,0.00,0.09,-272.70,-272.77,-2,971,-2,21.5,9.3,-12.2,21.1,9.6,-12.2,5.73,1.93,-11.2,25.8
2015-03-15 01:18:00,0.0,1.94126,0.00046,405.538,0.030,0.3297,0.0018,140.002,45.000,34100.61136,1.94759,407.161,32.707,45.068,45.000,0.00,0.09,-272.70,-272.76,-2,971,-2,21.5,9.3,-12.2,21.2,9.6,-12.1,5.73,1.97,-11.2,25.7
2015-03-15 01:19:00,0.0,1.94095,0.00067,405.521,0.047,0.3290,0.0013,139.999,45.000,34099.67275,1.94736,407.141,32.739,45.068,45.000,0.00,0.09,-272.71,-272.77,-2,971,-2,21.5,9.3,-12.3,21.2,9.6,-12.1,5.73,1.97,-11.2,25.8
2015-03-15 01:20:00,0.0,1.94042,0.00033,405.483,0.036,0.3291,0.0018,140.003,45.000,34101.50140,1.94676,407.103,32.750,45.068,45.000,0.00,0.09,-272.71,-272.77,-2,972,-2,21.5,9.3,-12.2,21.2,9.6,-12.1,5.73,1.94,-11.2,25.8
2015-03-15 01:21:00,0.0,1.94060,0.00039,405.476,0.030,0.3301,0.0018,139.998,45.000,34098.43390,1.94695,407.100,32.750,45.068,45.000,0.00,0.09,-272.71,-272.76,-2,972,-2,21.5,9.4,-12.2,21.2,9.7,-12.1,5.73,1.89,-11.2,25.8
2015-03-15 01:22:00,0.0,1.94032,0.00054,405.485,0.029,0.3319,0.0017,140.002,45.000,34098.37448,1.94674,407.119,32.749,45.068,45.000,0.00,0.09,-272.71,-272.77,-2,972,-2,21.5,9.4,-12.2,21.2,9.7,-12.1,5.73,1.87,-11.2,25.7
2015-03-15 01:23:00,0.0,1.93998,0.00033,405.435,0.027,0.3326,0.0016,139.999,45.000,34099.81272,1.94639,407.072,32.752,45.068,45.000,0.00,0.09,-272.71,-272.77,-2,971,-2,21.5,9.4,-12.1,21.2,9.7,-12.0,5.73,1.89,-11.2,25.7
2015-03-15 01:24:00,0.0,1.94041,0.00038,405.480,0.034,0.3323,0.0020,139.999,45.000,34098.14766,1.94676,407.113,32.750,45.068,45.000,0.00,0.09,-272.70,-272.76,-2,970,-2,21.5,9.4,-12.1,21.2,9.7,-12.0,5.73,1.93,-11.2,25.7
2015-03-15 01:25:00,0.0,1.94056,0.00030,405.506,0.027,0.3324,0.0023,140.000,45.000,34100.48621,1.94701,407.142,32.743,45.068,45.000,0.00,0.09,-272.71,-272.76,-2,971,-2,21.6,9.4,-12.1,21.2,9.7,-12.0,5.73,1.96,-11.2,25.7
2015-03-15 01:26:00,0.0,1.94049,0.00037,405.499,0.032,0.3343,0.0014,139.998,45.000,34100.60894,1.94691,407.145,32.730,45.068,45.000,0.00,0.09,-272.72,-272.77,-2,971,-2,21.6,9.4,-12.1,21.2,9.7,-12.0,5.73,1.97,-11.2,25.7
2015-03-15 01:27:00,0.0,1.94081,0.00034,405.503,0.026,0.3336,0.0018,140.004,45.000,34103.15980,1.94725,407.145,32.719,45.068,45.000,0.00,0.09,-272.71,-272.77,-3,972,-2,21.6,9.4,-12.1,21.2,9.8,-11.9,5.73,1.94,-11.2,25.8
2015-03-15 01:28:00,0.0,1.94052,0.00032,405.531,0.030,0.3322,0.0022,140.000,45.000,34101.85169,1.94694,407.166,32.714,45.068,45.000,0.00,0.09,-272.71,-272.77,-2,971,-2,21.6,9.4,-12.1,21.2,9.7,-12.0,5.73,1.90,-11.2,25.8
2015-03-15 01:29:00,0.0,1.94033,0.00068,405.496,0.025,0.3315,0.0015,140.004,45.000,34099.92114,1.94676,407.129,32.693,45.068,45.001,0.00,0.09,-272.71,-272.77,-2,971,-2,21.6,9.4,-12.1,21.2,9.7,-12.0,5.73,1.89,-11.2,25.8
2015-03-15 01:30:00,0.0,1.94061,0.00052,405.515,0.044,0.3319,0.0014,139.995,45.000,34097.45811,1.94694,407.146,32.727,45.068,45.000,0.00,0.09,-272.71,-272.77,-2,971,-2,21.6,9.4,-12.1,21.2,9.7,-12.0,5.73,1.87,-11.2,25.8
2015-03-15 01:31:00,0.0,1.94077,0.00038,405.496,0.048,0.3304,0.0019,140.001,45.000,34101.22466,1.94717,407.122,32.756,45.068,45.000,0.00,0.09,-272.71,-272.76,-3,972,-2,21.6,9.4,-12.1,21.2,9.7,-12.0,5.73,1.91,-11.2,25.8
2015-03-15 01:32:00,0.0,1.93981,0.00040,405.455,0.027,0.3304,0.0015,140.000,45.000,34102.57805,1.94616,407.082,32.783,45.068,45.000,0.00,0.09,-272.71,-272.77,-2,972,-2,21.6,9.4,-12.2,21.2,9.6,-12.1,5.73,1.95,-11.2,25.8
2015-03-15 01:33:00,0.0,1.94031,0.00039,405.480,0.025,0.3313,0.0016,140.001,45.000,34097.75474,1.94671,407.110,32.807,45.068,45.000,0.00,0.09,-272.71,-272.77,-2,972,-2,21.6,9.4,-12.1,21.2,9.7,-12.1,5.73,1.97,-11.2,25.8
2015-03-15 01:34:00,0.0,1.94013,0.00036,405.476,0.033,0.3313,0.0015,139.999,45.000,34099.38203,1.94649,407.107,32.812,45.068,45.000,0.00,0.09,-272.71,-272.76,-2,971,-2,21.6,9.4,-12.2,21.2,9.7,-12.1,5.73,1.95,-11.2,25.8
2015-03-15 01:35:00,0.0,1.94043,0.00044,405.521,0.028,0.3305,0.0012,140.001,45.000,34097.82907,1.94680,407.147,32.813,45.067,45.000,0.00,0.09,-272.71,-272.76,-2,971,-2,21.6,9.3,-12.2,21.2,9.7,-12.1,5.73,1.91,-11.2,25.8
2015-03-15 01:36:00,0.0,1.94007,0.00053,405.511,0.023,0.3290,0.0013,139.998,45.000,34100.18566,1.94646,407.130,32.805,45.068,45.000,0.00,0.09,-272.72,-272.77,-2,970,-2,21.6,9.3,-12.2,21.2,9.6,-12.1,5.73,1.88,-11.2,25.8
2015-03-15 01:37:00,0.0,1.94029,0.00046,405.517,0.030,0.3292,0.0015,139.997,45.000,34099.68524,1.94658,407.138,32.775,45.068,45.000,0.00,0.09,-272.71,-272.77,-2,971,-2,21.6,9.3,-12.2,21.2,9.6,-12.2,5.73,1.88,-11.2,25.8
2015-03-15 01:38:00,0.0,1.94077,0.00039,405.550,0.046,0.3269,0.0017,140.000,45.000,34099.29792,1.94706,407.158,32.755,45.068,45.000,0.00,0.09,-272.70,-272.77,-2,971,-2,21.6,9.3,-12.3,21.2,9.6,-12.2,5.73,1.91,-11.2,25.8
2015-03-15 01:39:00,0.0,1.94107,0.00042,405.539,0.033,0.3255,0.0018,139.997,45.000,34099.94677,1.94733,407.140,32.750,45.068,45.000,0.00,0.09,-272.71,-272.77,-2,972,-2,21.6,9.2,-12.4,21.2,9.5,-12.3,5.73,1.94,-11.2,25.7
2015-03-15 01:40:00,0.0,1.94116,0.00041,405.556,0.036,0.3240,0.0023,140.000,45.000,34102.04204,1.94740,407.151,32.743,45.068,45.001,0.00,0.09,-272.72,-272.77,-2,972,-2,21.6,9.2,-12.4,21.2,9.5,-12.3,5.73,1.96,-11.2,25.7
2015-03-15 01:41:00,0.0,1.94075,0.00056,405.532,0.044,0.3224,0.0012,139.997,45.000,34104.98439,1.94699,407.119,32.722,45.068,45.000,0.00,0.09,-272.71,-272.76,-2,971,-2,21.6,9.1,-12.4,21.2,9.4,-12.3,5.73,1.96,-11.2,25.8
2015-03-15 01:42:00,0.0,1.94050,0.00068,405.539,0.040,0.3230,0.0017,140.000,45.000,34105.46155,1.94671,407.126,32.708,45.068,45.001,0.00,0.09,-272.71,-272.76,-2,971,-2,21.7,9.1,-12.5,21.3,9.4,-12.3,5.73,1.93,-11.2,25.8
2015-03-15 01:43:00,0.0,1.94138,0.00048,405.569,0.040,0.3202,0.0019,139.999,45.000,34103.15167,1.94751,407.144,32.691,45.068,45.000,0.00,0.09,-272.71,-272.77,-3,972,-2,21.7,9.0,-12.5,21.3,9.4,-12.4,5.73,1.90,-11.1,25.8
2015-03-15 01:44:00,0.0,1.94123,0.00063,405.579,0.038,0.3191,0.0016,140.000,45.000,34104.71452,1.94737,407.150,32.697,45.068,45.000,0.00,0.09,-272.71,-272.77,-2,973,-2,21.7,9.0,-12.6,21.3,9.3,-12.5,5.73,1.88,-11.2,25.9
2015-03-15 01:45:00,0.0,1.94163,0.00048,405.606,0.024,0.3174,0.0022,139.998,45.000,34101.72052,1.94779,407.168,32.714,45.068,45.000,0.00,0.09,-272.71,-272.76,-2,972,-2,21.7,9.0,-12.6,21.3,9.3,-12.5,5.73,1.89,-11.1,25.8
2015-03-15 01:46:00,0.0,1.94140,0.00044,405.615,0.031,0.3159,0.0013,140.002,45.000,34104.93528,1.94749,407.168,32.741,45.068,45.000,0.00,0.09,-272.71,-272.77,-2,971,-2,21.7,8.9,-12.7,21.3,9.2,-12.6,5.73,1.92,-11.2,25.9